[[{"header":{"parameterUnit":"m.s-1","parameterCategory":2,"la1":30.2991,"la2":30.254,"lo1":-89.0895,"lo2":-89.0444,"dy":0.0017,"dx":0.0017,"nx":28,"ny":28,"refTime":"2025-12-21T09:00:00:Z","depth":"0","parameterNumber":2,"parameterNumberName":"U-component_of_CURRENTS"},"data":[0,0,0,0,0,0,0,0,0,0,0,0,0,0,0,0,0,0,0,0,0,0,0,0,0,0,0,0,0,0,0,0,0,0,0,0,0,0,0,0,0,0,0,0,0,0,0,0,0,0,0,0,0,0,0,0,0,0,0.2203,0.2203,0,0.2177,0.2177,0.2176,0.2152,0.2152,0.2152,0.2152,0.2121,0.212,0.2119,0,0,0,0,0,0,0,0,0,0,0,0,0,0.2246,0.2245,0.2203,0.2203,0.2203,0.2177,0.2177,0.2176,0.2152,0.2152,0.2152,0.2152,0.2121,0.212,0.2119,0,0,0,0,0,0,0,0,0,0,0,0,0,0.2221,0.2244,0.2203,0.2191,0.219,0.2177,0.2177,0.2176,0.2152,0.2152,0.2152,0.2152,0.2121,0.212,0.2119,0.2109,0,0,0.2115,0.2114,0,0,0,0,0,0,0,0,0.2222,0.2219,0.2193,0.2192,0.2191,0.2171,0.218,0.2154,0.2152,0.2163,0.2152,0.2152,0.2139,0.2136,0.2126,0.2108,0.2106,0.2114,0.2114,0.2113,0.2113,0,0,0,0,0,0,0,0.2224,0.222,0.2189,0.2193,0.2192,0.2192,0.2188,0.2175,0.2148,0.2162,0.2161,0.2164,0.2138,0.2128,0.2126,0.2106,0.2115,0.2113,0.2113,0.2112,0.2119,0.212,0,0,0,0,0,0,0.2234,0.2221,0.219,0.2189,0.2211,0.2191,0.2186,0.2174,0.2148,0.2145,0.2164,0.2163,0.213,0.2127,0.2124,0.2147,0.2113,0.2112,0.2111,0.2118,0.2119,0.212,0,0,0,0,0,0,0.2234,0.223,0.2191,0.2209,0.2204,0.219,0.2177,0.2174,0.2169,0.215,0.2147,0.2163,0.213,0.2126,0.2125,0.2144,0.2111,0.211,0.2117,0.2118,0.212,0.2169,0,0,0,0,0,0,0.2235,0.223,0.2226,0.2209,0.2204,0.2193,0.2177,0.2174,0.2172,0.217,0.2149,0.2145,0.213,0.2127,0.2123,0.2142,0.2109,0.2115,0.2117,0.2119,0.2167,0.2172,0.2177,0,0,0,0,0,0.2237,0.2227,0.2225,0.2222,0.2197,0.2194,0.2191,0.218,0.2172,0.2174,0.2162,0.2146,0.2136,0.2126,0.2122,0.2141,0.2115,0.2117,0.2119,0.2164,0.2171,0.2177,0,0,0,0,0,0,0.2239,0.2224,0.2221,0.2206,0.2208,0.2192,0.219,0.2185,0.2175,0.2173,0.2152,0.2149,0.2156,0.2142,0.2131,0.2149,0.2125,0.2127,0.2161,0.2168,0.2173,0.2192,0.2108,0,0,0,0,0,0.224,0.2229,0.2223,0.2214,0.2215,0.2205,0.2202,0.2197,0.2188,0.2183,0.217,0.216,0.216,0.2159,0.2151,0.2156,0.216,0.2168,0.2174,0.2178,0.2192,0.2217,0.2227,0.2127,0.2127,0.2127,0,0,0.2236,0.223,0.2222,0.2215,0.2211,0.2217,0.2202,0.2202,0.221,0.2182,0.2183,0.2175,0.2166,0.2175,0.2177,0.2166,0.2209,0.2181,0.2185,0.2196,0.2221,0.223,0.2239,0.2129,0.2129,0.2128,0,0,0.2235,0.2222,0.222,0.2225,0.2229,0.2226,0.2231,0.2222,0.2221,0.2223,0.2213,0.2225,0.2206,0.2216,0.2217,0.2249,0.2235,0.2241,0.2285,0.2309,0.2318,0.2325,0.2342,0.2351,0.2246,0.2246,0.2246,0,0.2239,0.2226,0.2222,0.223,0.2234,0.2234,0.2241,0.2245,0.2238,0.2247,0.2231,0.224,0.2232,0.2264,0.2277,0.2263,0.2268,0.2259,0.2317,0.2325,0.2332,0.2347,0.2356,0.2249,0.2248,0.2248,0.2248,0,0.2239,0.2236,0.2237,0.2246,0.2253,0.2257,0.2268,0.2277,0.2275,0.2283,0.2307,0.2301,0.2312,0.2314,0.2304,0.2354,0.2338,0.2319,0.2301,0.2345,0.2358,0.2367,0.2252,0.2251,0.2251,0.225,0,0,0.2224,0.2235,0.2235,0.2244,0.2259,0.2265,0.2288,0.231,0.2334,0.2339,0.2372,0.2384,0.239,0.2393,0.2389,0.2415,0.2468,0.2392,0.2392,0.2411,0.2519,0.247,0.2474,0.2455,0.2457,0.2459,0.2508,0,0.2225,0.2239,0.2244,0.2262,0.2269,0.2285,0.2309,0.2337,0.2353,0.239,0.2412,0.2441,0.2418,0.2433,0.2456,0.2475,0.2493,0.2457,0.2473,0.2473,0.2426,0.2483,0.2349,0.2379,0.2517,0.2518,0.2519,0,0.2219,0.223,0.2243,0.2271,0.2277,0.2294,0.2334,0.2358,0.2418,0.2434,0.2475,0.2495,0.2556,0.2517,0.2574,0.255,0.2539,0.2542,0.2543,0.2488,0.2441,0.2358,0.2389,0.2312,0.2532,0.2531,0.253,0,0.2206,0.2227,0.2236,0.2244,0.2281,0.2296,0.2319,0.2371,0.241,0.2475,0.2524,0.257,0.2615,0.2623,0.264,0.261,0.2692,0.2647,0.2588,0.2583,0.2469,0.2452,0.2429,0.267,0.267,0.267,0.2669,0,0.2199,0.2209,0.2231,0.224,0.2267,0.2293,0.2336,0.237,0.2441,0.2496,0.2552,0.2606,0.2645,0.2695,0.2677,0.2677,0.2722,0.2614,0.2602,0.2482,0.2466,0.2392,0.236,0.2671,0.2671,0.2671,0.267,0,0.2193,0.22,0.2217,0.225,0.2261,0.2284,0.2349,0.2394,0.246,0.2538,0.2571,0.2665,0.2726,0.276,0.2785,0.2731,0.2633,0.2703,0.2561,0.253,0.2376,0.2351,0.2237,0.2153,0.2644,0.2643,0.2642,0,0.2198,0.2203,0.2226,0.2241,0.2256,0.2293,0.2331,0.2392,0.2439,0.2558,0.26,0.2701,0.2738,0.2788,0.2725,0.27,0.2607,0.2545,0.2458,0.2369,0.2333,0.2233,0.2163,0.2327,0.2324,0.2321,0.2319,0,0.2215,0.2215,0.2232,0.2253,0.228,0.2302,0.235,0.2385,0.2459,0.2527,0.259,0.2633,0.2687,0.2601,0.259,0.2549,0.2394,0.2489,0.2432,0.2122,0.1976,0.1887,0.2297,0.2296,0.2298,0.23,0.2301,0.2302,0.2233,0.2241,0.2251,0.2265,0.2286,0.2278,0.2268,0.2321,0.2358,0.2394,0.249,0.2486,0.2461,0.2422,0.2393,0.2227,0.2222,0.2099,0.2091,0.2009,0.1878,0.2242,0.2203,0.2205,0.2206,0.2207,0.2209,0,0.2247,0.2248,0.2265,0.2247,0.223,0.2246,0.2259,0.2225,0.2212,0.2258,0.2276,0.2194,0.2119,0.2096,0.1946,0.1829,0.173,0.1767,0.1594,0.1555,0.191,0.1847,0.1684,0.1684,0.1684,0.1685,0.1685,0.1685,0.2254,0.2251,0.2238,0.2178,0.2161,0.2083,0.2057,0.2016,0.2015,0.1927,0.1853,0.1858,0.1841,0.1736,0.159,0.1548,0.14,0.1306,0.1327,0.1583,0.1613,0.1642,0.1575,0.1358,0.1358,0.0865,0.0861,0.0858]},{"header":{"parameterUnit":"m.s-1","parameterCategory":2,"la1":30.2991,"la2":30.254,"lo1":-89.0895,"lo2":-89.0444,"dy":0.0017,"dx":0.0017,"nx":28,"ny":28,"refTime":"2025-12-21T09:00:00:Z","depth":"0","parameterNumber":3,"parameterNumberName":"V-component_of_CURRENTS"},"data":[0,0,0,0,0,0,0,0,0,0,0,0,0,0,0,0,0,0,0,0,0,0,0,0,0,0,0,0,0,0,0,0,0,0,0,0,0,0,0,0,0,0,0,0,0,0,0,0,0,0,0,0,0,0,0,0,0,0,-0.0103,-0.0102,0,-0.0086,-0.0086,-0.0086,-0.0092,-0.0092,-0.0093,-0.0093,-0.0087,-0.0086,-0.0086,0,0,0,0,0,0,0,0,0,0,0,0,0,-0.0126,-0.0126,-0.0103,-0.0102,-0.0102,-0.0086,-0.0086,-0.0086,-0.0092,-0.0092,-0.0093,-0.0093,-0.0087,-0.0086,-0.0086,0,0,0,0,0,0,0,0,0,0,0,0,0,-0.0113,-0.0126,-0.0103,-0.0104,-0.0103,-0.0086,-0.0086,-0.0086,-0.0092,-0.0092,-0.0093,-0.0093,-0.0087,-0.0086,-0.0086,-0.0069,0,0,-0.0083,-0.0083,0,0,0,0,0,0,0,0,-0.0114,-0.0112,-0.0104,-0.0103,-0.0103,-0.0092,-0.0092,-0.0081,-0.0092,-0.0096,-0.0093,-0.0094,-0.0089,-0.0088,-0.0083,-0.0069,-0.0068,-0.0083,-0.0083,-0.0082,-0.0082,0,0,0,0,0,0,0,-0.0115,-0.0113,-0.0096,-0.0103,-0.0103,-0.01,-0.0099,-0.009,-0.009,-0.0096,-0.0096,-0.0094,-0.0089,-0.0084,-0.0083,-0.0068,-0.0083,-0.0082,-0.0082,-0.0082,-0.0053,-0.0053,0,0,0,0,0,0,-0.0117,-0.0114,-0.0097,-0.0096,-0.011,-0.0099,-0.0098,-0.0095,-0.0089,-0.0089,-0.0094,-0.0095,-0.0085,-0.0084,-0.0083,-0.0071,-0.0082,-0.0081,-0.0081,-0.0053,-0.0053,-0.0053,0,0,0,0,0,0,-0.0118,-0.0116,-0.0097,-0.0105,-0.0102,-0.0098,-0.0095,-0.0094,-0.0091,-0.0088,-0.0088,-0.0092,-0.0086,-0.0084,-0.0072,-0.0071,-0.0081,-0.008,-0.0054,-0.0053,-0.0053,-0.0041,0,0,0,0,0,0,-0.0118,-0.0116,-0.011,-0.0105,-0.0102,-0.0084,-0.0094,-0.0093,-0.0089,-0.009,-0.0086,-0.0086,-0.0086,-0.0073,-0.0071,-0.007,-0.008,-0.0054,-0.0053,-0.0053,-0.0042,-0.0041,-0.0039,0,0,0,0,0,-0.0119,-0.0105,-0.0109,-0.0107,-0.0095,-0.0084,-0.0082,-0.0081,-0.0088,-0.0082,-0.008,-0.0086,-0.0069,-0.0072,-0.007,-0.0068,-0.0054,-0.0054,-0.0053,-0.0043,-0.0041,-0.0039,0,0,0,0,0,0,-0.0112,-0.0105,-0.0109,-0.0094,-0.009,-0.0085,-0.0077,-0.008,-0.0072,-0.0075,-0.0076,-0.0075,-0.0065,-0.0066,-0.0069,-0.0059,-0.0065,-0.0064,-0.0058,-0.0056,-0.0055,-0.004,-0.0079,0,0,0,0,0,-0.0108,-0.0095,-0.0094,-0.0081,-0.0081,-0.008,-0.0075,-0.0076,-0.0071,-0.0069,-0.0067,-0.0065,-0.0059,-0.0058,-0.0051,-0.0041,-0.0039,-0.0041,-0.0039,-0.0038,-0.0024,-0.0012,-0.0008,-0.0051,-0.0051,-0.0051,0,0,-0.0101,-0.0095,-0.0088,-0.0079,-0.0077,-0.0065,-0.0078,-0.007,-0.006,-0.0069,-0.0054,-0.0056,-0.0054,-0.0044,-0.0041,-0.0047,-0.0029,-0.0037,-0.0036,-0.0023,-0.0011,-0.0006,-0.0002,-0.005,-0.005,-0.005,0,0,-0.008,-0.0079,-0.0064,-0.0058,-0.0053,-0.0053,-0.0051,-0.0048,-0.0048,-0.0035,-0.004,-0.0038,-0.0031,-0.0027,-0.0026,-0.0011,-0.0019,-0.0017,-0.0,0.0011,0.0015,0.0019,0.0007,0.0009,-0.0021,-0.0021,-0.0021,0,-0.0075,-0.0053,-0.0057,-0.0042,-0.0033,-0.0047,-0.0029,-0.0028,-0.0021,-0.0008,-0.003,-0.0009,-0.002,0.0004,-0.0003,-0.0007,-0.0009,-0.0008,0.0014,0.0017,0.0021,0.0008,0.0011,-0.002,-0.002,-0.002,-0.002,0,-0.0043,-0.0026,-0.0017,-0.0003,0.0006,0.0019,0.0016,0.0024,0.0016,0.0023,0.0041,0.0026,0.0041,0.0026,0.0011,0.0031,0.0017,0.0016,0.001,0.0026,0.0011,0.0013,-0.0019,-0.0019,-0.002,-0.002,0,0,-0.0027,-0.0,0.0004,0.0023,0.0028,0.0044,0.0055,0.0076,0.0109,0.0088,0.0129,0.0103,0.0096,0.0097,0.0077,0.0071,0.0069,0.0048,0.0048,0.0038,0.0079,0.0069,0.0071,0.0072,0.0073,0.0074,0.0052,0,-0.0001,0.0042,0.0044,0.0085,0.0107,0.0102,0.0125,0.0141,0.0152,0.0188,0.0161,0.0192,0.0123,0.0134,0.0113,0.0103,0.008,0.0074,0.0066,0.0065,0.0056,0.0075,0.0101,0.0085,0.0054,0.0055,0.0055,0,0.0031,0.006,0.0103,0.0147,0.0156,0.0175,0.0225,0.0249,0.0284,0.0289,0.0297,0.0292,0.0283,0.0223,0.0184,0.0185,0.0126,0.0097,0.0096,0.0091,0.0061,0.0068,0.009,0.0024,0.0059,0.0058,0.0058,0,0.006,0.0102,0.0142,0.0155,0.0197,0.0218,0.0243,0.0285,0.0339,0.0368,0.0419,0.0389,0.0403,0.0333,0.0254,0.0225,0.0217,0.0174,0.0101,0.0098,0.0123,0.0121,0.0086,0.0136,0.0136,0.0136,0.0136,0,0.0092,0.013,0.0161,0.0189,0.0258,0.0264,0.0349,0.0368,0.0433,0.0525,0.0482,0.0551,0.0434,0.0417,0.0307,0.0226,0.0255,0.0114,0.0103,0.0124,0.0123,0.0068,0.0023,0.0135,0.0135,0.0135,0.0135,0,0.0132,0.0142,0.0205,0.0255,0.0277,0.0332,0.0427,0.0505,0.0539,0.0659,0.0678,0.0688,0.0664,0.0549,0.0451,0.0317,0.0182,0.0183,0.0202,0.0193,0.0041,-0.0004,-0.0059,-0.0131,0.0094,0.0094,0.0093,0,0.0161,0.0196,0.0269,0.0324,0.0351,0.0433,0.0507,0.0552,0.064,0.076,0.0832,0.0846,0.0878,0.0726,0.0511,0.0325,0.0214,0.019,0.013,0.0049,-0.001,-0.0057,-0.0118,0.0153,0.0153,0.0153,0.0153,0,0.0241,0.0261,0.0321,0.0424,0.0501,0.0592,0.0689,0.0764,0.0841,0.0939,0.106,0.1102,0.0979,0.082,0.0555,0.0413,0.014,0.0187,0.0116,0.0047,-0.0014,-0.0093,0.0129,0.0156,0.0155,0.0155,0.0155,0.0155,0.0318,0.0374,0.0448,0.0542,0.0631,0.0726,0.079,0.0903,0.1028,0.115,0.1208,0.1265,0.1057,0.0719,0.0541,0.0199,0.0156,0.007,0.0023,-0.0016,-0.0084,0.013,0.0137,0.0137,0.0136,0.0136,0.0136,0,0.0416,0.0469,0.0568,0.0661,0.0746,0.0773,0.09,0.0955,0.1079,0.1219,0.1313,0.1235,0.1014,0.0726,0.0298,0.0075,-0.0043,-0.0047,-0.0099,-0.0158,0.0058,0.0063,0.0042,0.0042,0.0042,0.0042,0.0042,0.0042,0.0477,0.057,0.0598,0.0728,0.0791,0.0868,0.0918,0.1009,0.1102,0.1204,0.1221,0.1245,0.1045,0.0495,0.008,-0.0035,-0.0214,-0.0237,-0.0356,-0.0185,-0.0177,-0.017,-0.0175,-0.0245,-0.0246,-0.0553,-0.0555,-0.0557]}],[{"header":{"parameterUnit":"m.s-1","parameterCategory":2,"la1":30.2991,"la2":30.254,"lo1":-89.0895,"lo2":-89.0444,"dy":0.0017,"dx":0.0017,"nx":28,"ny":28,"refTime":"2025-12-21T09:00:00:Z","depth":"2","parameterNumber":2,"parameterNumberName":"U-component_of_CURRENTS"},"data":[0,0,0,0,0,0,0,0,0,0,0,0,0,0,0,0,0,0,0,0,0,0,0,0,0,0,0,0,0,0,0,0,0,0,0,0,0,0,0,0,0,0,0,0,0,0,0,0,0,0,0,0,0,0,0,0,0,0,0.1988,0.1988,0,0.1997,0.1997,0.1998,0.2006,0.2006,0.2006,0.2006,0.2041,0.2042,0.2043,0,0,0,0,0,0,0,0,0,0,0,0,0,0.198,0.198,0.1988,0.1988,0.1988,0.1997,0.1997,0.1998,0.2006,0.2006,0.2006,0.2006,0.2041,0.2042,0.2043,0,0,0,0,0,0,0,0,0,0,0,0,0,0.1987,0.198,0.1988,0.1992,0.1992,0.1997,0.1997,0.1998,0.2006,0.2006,0.2006,0.2006,0.2041,0.2042,0.2043,0.2054,0,0,0.2048,0.2049,0,0,0,0,0,0,0,0,0.1987,0.1988,0.1991,0.1991,0.1992,0.1999,0.2007,0.2017,0.2006,0.2002,0.2006,0.2006,0.2029,0.2031,0.2035,0.2056,0.2057,0.2048,0.2049,0.205,0.205,0,0,0,0,0,0,0,0.1986,0.1987,0.1993,0.1991,0.1991,0.1994,0.1995,0.2009,0.2018,0.2003,0.2003,0.2002,0.2029,0.2033,0.2036,0.2058,0.2048,0.2049,0.205,0.2051,0.2119,0.212,0,0,0,0,0,0,0.1982,0.1987,0.1993,0.1993,0.1987,0.1994,0.1995,0.1998,0.2017,0.2019,0.2002,0.2002,0.2031,0.2034,0.2037,0.2074,0.205,0.2051,0.2052,0.2118,0.2119,0.212,0,0,0,0,0,0,0.1982,0.1983,0.1992,0.1989,0.199,0.1994,0.1997,0.1998,0.2012,0.2015,0.2018,0.2015,0.2031,0.2035,0.206,0.2074,0.2052,0.2053,0.2117,0.2118,0.212,0.2132,0,0,0,0,0,0,0.1982,0.1983,0.1988,0.1989,0.199,0.1998,0.1997,0.1998,0.2009,0.201,0.2027,0.203,0.2031,0.2058,0.2062,0.2076,0.2054,0.2116,0.2118,0.2119,0.213,0.2133,0.2136,0,0,0,0,0,0.1981,0.1984,0.1988,0.1989,0.1996,0.1999,0.2,0.2004,0.201,0.2016,0.2032,0.203,0.2072,0.206,0.2064,0.2079,0.2115,0.2117,0.2119,0.2129,0.2133,0.2136,0,0,0,0,0,0,0.1984,0.1985,0.199,0.1993,0.1998,0.1999,0.2007,0.2011,0.2029,0.2034,0.2042,0.2046,0.2076,0.2077,0.2064,0.2105,0.2093,0.2096,0.2099,0.2103,0.2106,0.2118,0.2055,0,0,0,0,0,0.1987,0.1988,0.1993,0.1996,0.2003,0.201,0.2014,0.2016,0.2027,0.2035,0.2048,0.2065,0.2086,0.2094,0.2112,0.2131,0.2147,0.2145,0.2147,0.215,0.2164,0.2205,0.2213,0.2127,0.2127,0.2127,0,0,0.1987,0.1988,0.1989,0.1996,0.2005,0.2016,0.2014,0.2022,0.2032,0.2036,0.2064,0.2081,0.2096,0.212,0.2133,0.2123,0.218,0.2153,0.2154,0.2167,0.2208,0.2216,0.2224,0.2129,0.2128,0.2128,0,0,0.1986,0.1995,0.1999,0.2006,0.2017,0.2023,0.2029,0.204,0.205,0.2073,0.2084,0.211,0.2136,0.2149,0.216,0.2191,0.22,0.2196,0.2215,0.2254,0.2262,0.2268,0.2285,0.2294,0.2191,0.2191,0.2191,0,0.1987,0.1995,0.2001,0.201,0.2018,0.203,0.2041,0.2053,0.2069,0.2087,0.2085,0.2145,0.2152,0.219,0.2198,0.2198,0.2218,0.2196,0.2258,0.2265,0.2272,0.2288,0.2297,0.2192,0.2191,0.2191,0.2191,0,0.199,0.2003,0.2009,0.2027,0.2035,0.2046,0.2061,0.2082,0.21,0.2115,0.2162,0.2177,0.2214,0.2216,0.2216,0.2267,0.2264,0.2261,0.2247,0.2281,0.2296,0.2305,0.2193,0.2192,0.2192,0.2192,0,0,0.1978,0.2006,0.2009,0.2022,0.2045,0.205,0.208,0.2111,0.2142,0.2166,0.2207,0.224,0.2259,0.2273,0.2277,0.2304,0.2355,0.2303,0.2305,0.2317,0.2436,0.2374,0.2377,0.2367,0.2369,0.2371,0.2421,0,0.1984,0.1998,0.2014,0.2037,0.205,0.2076,0.2105,0.2134,0.2164,0.2209,0.2238,0.2281,0.2276,0.2297,0.2327,0.2352,0.2383,0.2342,0.2405,0.2406,0.2345,0.2387,0.2167,0.2189,0.243,0.2432,0.2433,0,0.1984,0.1994,0.2013,0.2049,0.206,0.2078,0.213,0.216,0.2225,0.2253,0.2303,0.2327,0.2376,0.2365,0.2435,0.2411,0.2434,0.2447,0.2449,0.2398,0.2362,0.2198,0.2197,0.2448,0.2447,0.2446,0.2445,0,0.1969,0.1995,0.201,0.202,0.2064,0.2086,0.212,0.2177,0.2216,0.2289,0.2327,0.2382,0.2422,0.2461,0.2485,0.2472,0.2556,0.2537,0.2504,0.2499,0.2327,0.2304,0.2603,0.2603,0.2603,0.2603,0.2603,0,0.1969,0.1981,0.2005,0.2021,0.2056,0.2081,0.2137,0.2186,0.225,0.2299,0.2356,0.2397,0.2455,0.2499,0.2512,0.2533,0.2582,0.2523,0.2517,0.2323,0.2299,0.2538,0.253,0.2605,0.2604,0.2604,0.2604,0,0.195,0.1972,0.1992,0.2033,0.2057,0.2079,0.2154,0.2186,0.2259,0.2323,0.235,0.2431,0.2485,0.2524,0.2585,0.2566,0.2587,0.2585,0.2342,0.2308,0.2494,0.2486,0.2552,0.2551,0.2549,0.2548,0.2547,0,0.1937,0.1949,0.1999,0.2018,0.2041,0.2084,0.2122,0.2194,0.2219,0.2331,0.2349,0.2436,0.2457,0.2519,0.2503,0.251,0.2578,0.2321,0.2258,0.2506,0.2494,0.2488,0.2482,0.2027,0.2022,0.2018,0.2015,0,0.1926,0.195,0.1973,0.2006,0.204,0.2073,0.2119,0.2128,0.2204,0.2246,0.2291,0.232,0.2386,0.2283,0.2307,0.2286,0.2295,0.2237,0.257,0.2078,0.2016,0.2003,0.2013,0.1977,0.1981,0.1984,0.1986,0.1987,0.1927,0.1925,0.1965,0.1979,0.202,0.2024,0.2015,0.2032,0.205,0.2046,0.2144,0.2115,0.2128,0.2049,0.1981,0.1947,0.2123,0.2016,0.2027,0.2042,0.1976,0.1916,0.1845,0.1848,0.185,0.1853,0.1854,0,0.1906,0.1914,0.1932,0.1939,0.1929,0.1989,0.1986,0.1921,0.1869,0.1888,0.1884,0.1716,0.1639,0.1674,0.156,0.1562,0.1529,0.1495,0.1422,0.1461,0.1495,0.1398,0.1115,0.1113,0.111,0.1108,0,0,0.1912,0.1901,0.1883,0.1843,0.1849,0.181,0.1784,0.1687,0.1652,0.1542,0.15,0.1576,0.1635,0.1356,0.1309,0.1192,0.1318,0.1143,0.1739,0.1693,0.1724,0.1802,0.1699,0,0,0,0,0]},{"header":{"parameterUnit":"m.s-1","parameterCategory":2,"la1":30.2991,"la2":30.254,"lo1":-89.0895,"lo2":-89.0444,"dy":0.0017,"dx":0.0017,"nx":28,"ny":28,"refTime":"2025-12-21T09:00:00:Z","depth":"2","parameterNumber":3,"parameterNumberName":"V-component_of_CURRENTS"},"data":[0,0,0,0,0,0,0,0,0,0,0,0,0,0,0,0,0,0,0,0,0,0,0,0,0,0,0,0,0,0,0,0,0,0,0,0,0,0,0,0,0,0,0,0,0,0,0,0,0,0,0,0,0,0,0,0,0,0,0.0131,0.013,0,0.0099,0.0098,0.0098,0.0076,0.0076,0.0076,0.0075,0.003,0.0029,0.0028,0,0,0,0,0,0,0,0,0,0,0,0,0,0.0147,0.0147,0.0131,0.013,0.013,0.0099,0.0098,0.0098,0.0076,0.0076,0.0076,0.0075,0.003,0.0029,0.0027,0,0,0,0,0,0,0,0,0,0,0,0,0,0.013,0.0147,0.0131,0.0116,0.0114,0.0099,0.0098,0.0098,0.0076,0.0076,0.0076,0.0075,0.0031,0.0029,0.0027,0.002,0,0,0.0022,0.0021,0,0,0,0,0,0,0,0,0.0131,0.0129,0.0118,0.0117,0.0115,0.0092,0.0087,0.0071,0.0076,0.009,0.0075,0.0075,0.005,0.0046,0.004,0.0018,0.0016,0.0022,0.0021,0.002,0.002,0,0,0,0,0,0,0,0.0132,0.013,0.0118,0.0118,0.0116,0.0102,0.0099,0.0084,0.007,0.0089,0.0087,0.0084,0.0048,0.0042,0.0039,0.0016,0.0022,0.0021,0.002,0.0019,-0.0007,-0.0007,0,0,0,0,0,0,0.0139,0.0132,0.0119,0.0117,0.0123,0.0102,0.0099,0.0099,0.0071,0.0067,0.0085,0.0084,0.0045,0.0041,0.0037,0.0049,0.002,0.0019,0.0018,-0.0008,-0.0007,-0.0007,0,0,0,0,0,0,0.0139,0.0138,0.012,0.0124,0.012,0.0102,0.0102,0.0098,0.0091,0.0068,0.0063,0.0081,0.0044,0.004,0.0028,0.0046,0.0018,0.0016,-0.0008,-0.0008,-0.0007,0.0059,0,0,0,0,0,0,0.014,0.0139,0.0138,0.0124,0.012,0.0118,0.0102,0.0098,0.009,0.0088,0.0064,0.0059,0.0044,0.003,0.0026,0.0043,0.0015,-0.0008,-0.0008,-0.0007,0.0056,0.0062,0.0066,0,0,0,0,0,0.0141,0.0145,0.0138,0.0136,0.0121,0.0119,0.0116,0.0101,0.009,0.0093,0.0074,0.006,0.0031,0.0029,0.0024,0.0042,-0.0009,-0.0008,-0.0007,0.0054,0.0061,0.0066,0,0,0,0,0,0,0.015,0.0143,0.0135,0.0136,0.013,0.0115,0.0114,0.0103,0.009,0.0085,0.0062,0.0057,0.0052,0.0034,0.0033,0.0034,0.0009,0.0009,0.0058,0.0064,0.0068,0.0075,0.0014,0,0,0,0,0,0.0152,0.0155,0.0145,0.0146,0.0144,0.0128,0.0123,0.0115,0.0102,0.0096,0.0079,0.0061,0.0051,0.0047,0.003,0.0032,0.001,0.0039,0.0044,0.0048,0.0049,0.0032,0.0036,-0.0005,-0.0005,-0.0005,0,0,0.0154,0.0152,0.0151,0.0148,0.014,0.0149,0.0125,0.0122,0.0131,0.0093,0.0095,0.0073,0.0052,0.0055,0.0052,0.0044,0.0048,0.0049,0.0053,0.0052,0.0033,0.0037,0.0041,-0.0004,-0.0004,-0.0004,0,0,0.0168,0.016,0.0169,0.017,0.0165,0.016,0.0161,0.0149,0.0145,0.0143,0.012,0.011,0.0092,0.0087,0.0081,0.0101,0.007,0.0093,0.0131,0.0116,0.0119,0.0122,0.0103,0.0104,0.0102,0.0102,0.0103,0,0.0171,0.0183,0.0171,0.0184,0.019,0.017,0.0186,0.0182,0.0167,0.017,0.0152,0.013,0.0111,0.0121,0.0128,0.0114,0.0094,0.0115,0.0123,0.0125,0.0127,0.0107,0.0107,0.0106,0.0105,0.0105,0.0105,0,0.0196,0.0206,0.0213,0.0227,0.0231,0.0241,0.0238,0.024,0.023,0.0225,0.0223,0.0194,0.0183,0.0179,0.016,0.0167,0.0145,0.0128,0.0112,0.0135,0.0112,0.0111,0.011,0.0109,0.0108,0.0107,0,0,0.0206,0.0227,0.023,0.0247,0.0256,0.0265,0.0283,0.0296,0.0312,0.0292,0.0308,0.0287,0.0264,0.0254,0.0228,0.0216,0.0212,0.018,0.0178,0.0169,0.0172,0.0156,0.0152,0.0194,0.0194,0.0194,0.0153,0,0.0231,0.027,0.0272,0.0309,0.0331,0.0326,0.0348,0.0356,0.0356,0.0365,0.0338,0.0337,0.0296,0.029,0.0272,0.0226,0.021,0.0224,0.0144,0.0141,0.0131,0.0151,0.0172,0.0136,0.0151,0.0151,0.0151,0,0.0257,0.0283,0.0326,0.0362,0.037,0.0387,0.0421,0.0439,0.0447,0.0445,0.0435,0.0406,0.0388,0.0344,0.0282,0.0291,0.0234,0.0195,0.0192,0.0153,0.0123,0.0113,0.0133,0.0148,0.0148,0.0148,0.0148,0,0.0282,0.0321,0.0359,0.0372,0.0407,0.0424,0.0442,0.0463,0.049,0.0493,0.0504,0.0469,0.0455,0.0384,0.0297,0.0288,0.0222,0.0199,0.0132,0.013,0.0119,0.0116,0.015,0.015,0.015,0.015,0.015,0,0.0313,0.0343,0.0373,0.0395,0.0443,0.0455,0.0504,0.0516,0.0545,0.0584,0.0543,0.0557,0.0462,0.041,0.0321,0.0226,0.0238,0.0141,0.0121,0.0143,0.0142,0.0126,0.0124,0.0148,0.0149,0.0149,0.0149,0,0.0334,0.0354,0.0398,0.0439,0.0456,0.0488,0.0544,0.0582,0.06,0.0647,0.0649,0.0626,0.0563,0.0459,0.0351,0.0265,0.0171,0.0129,0.016,0.0144,0.0082,0.0084,0.0056,0.0055,0.0054,0.0054,0.0053,0,0.035,0.0375,0.0427,0.0456,0.0473,0.0525,0.0567,0.0605,0.065,0.0693,0.0718,0.0677,0.0656,0.0494,0.0348,0.0198,0.0166,0.01,0.0085,0.0091,0.0074,0.0077,0.0079,0.0096,0.0096,0.0096,0.0095,0,0.0374,0.0387,0.0423,0.0484,0.0528,0.0588,0.0647,0.0693,0.0745,0.0786,0.0828,0.0815,0.0678,0.0543,0.0337,0.0232,0.0127,0.0092,0.0097,0.0117,0.0125,0.0109,0.0111,0.0095,0.0095,0.0095,0.0095,0.0095,0.0384,0.041,0.0454,0.0512,0.0567,0.0638,0.069,0.076,0.0839,0.0893,0.0894,0.0876,0.0728,0.0476,0.0304,0.0123,0.0133,0.0053,0.0054,0.0056,0.0068,0.0075,0.0038,0.0037,0.0037,0.0037,0.0037,0,0.0402,0.0432,0.0482,0.0549,0.0606,0.0639,0.0738,0.0786,0.0877,0.0922,0.0949,0.0802,0.0669,0.0492,0.0241,0.0081,0.0071,0.0013,0.0042,0.0044,0.0046,0.0058,0.0024,0.0024,0.0023,0.0023,0,0,0.0408,0.0456,0.0482,0.0567,0.0617,0.0697,0.0754,0.0823,0.0875,0.0906,0.0905,0.0897,0.0715,0.052,0.0317,0.0172,0.0133,0.0132,0.0161,0.0222,0.0225,0.0091,0.0116,0,0,0,0,0]}],[{"header":{"parameterUnit":"m.s-1","parameterCategory":2,"la1":30.2991,"la2":30.254,"lo1":-89.0895,"lo2":-89.0444,"dy":0.0017,"dx":0.0017,"nx":28,"ny":28,"refTime":"2025-12-21T09:00:00:Z","depth":"4","parameterNumber":2,"parameterNumberName":"U-component_of_CURRENTS"},"data":[0,0,0,0,0,0,0,0,0,0,0,0,0,0,0,0,0,0,0,0,0,0,0,0,0,0,0,0,0,0,0,0,0,0,0,0,0,0,0,0,0,0,0,0,0,0,0,0,0,0,0,0,0,0,0,0,0,0,0.1234,0.1235,0,0.1286,0.1286,0.1287,0.1332,0.1332,0.1333,0.1333,0.1396,0.1397,0.1398,0,0,0,0,0,0,0,0,0,0,0,0,0,0.1182,0.1183,0.1234,0.1235,0.1236,0.1285,0.1286,0.1287,0.1332,0.1332,0.1333,0.1334,0.1396,0.1397,0.1398,0,0,0,0,0,0,0,0,0,0,0,0,0,0.1216,0.1183,0.1234,0.1264,0.1268,0.1285,0.1286,0.1287,0.1331,0.1332,0.1333,0.1334,0.1395,0.1397,0.1398,0.1392,0,0,0.1404,0.1404,0,0,0,0,0,0,0,0,0.1214,0.1217,0.1259,0.1262,0.1266,0.1304,0.1291,0.1323,0.1331,0.1307,0.1333,0.1334,0.1366,0.137,0.1377,0.1395,0.1397,0.1404,0.1405,0.1406,0.1406,0,0,0,0,0,0,0,0.1211,0.1215,0.1254,0.126,0.1264,0.1278,0.1283,0.1297,0.1331,0.1309,0.1312,0.1319,0.1368,0.1375,0.1379,0.1398,0.1404,0.1405,0.1406,0.1407,0.1499,0.1501,0,0,0,0,0,0,0.1205,0.1213,0.1252,0.1256,0.1242,0.1278,0.1284,0.129,0.133,0.1337,0.1318,0.1321,0.1372,0.1377,0.1381,0.1448,0.1406,0.1407,0.1408,0.1498,0.15,0.1501,0,0,0,0,0,0,0.1203,0.1208,0.125,0.1236,0.1243,0.1278,0.1284,0.1291,0.1325,0.1337,0.1345,0.1349,0.1373,0.1379,0.1416,0.1448,0.1408,0.141,0.1496,0.1498,0.15,0.1535,0,0,0,0,0,0,0.1202,0.1207,0.1223,0.1236,0.1243,0.1275,0.1284,0.1291,0.1326,0.1331,0.1365,0.137,0.1374,0.1414,0.1418,0.1449,0.1411,0.1494,0.1497,0.15,0.1532,0.1538,0.1543,0,0,0,0,0,0.12,0.1211,0.1223,0.1229,0.1259,0.1275,0.1281,0.1308,0.1327,0.1342,0.137,0.1371,0.1434,0.1416,0.1421,0.1453,0.1493,0.1496,0.15,0.1529,0.1537,0.1543,0,0,0,0,0,0,0.1197,0.1217,0.1231,0.1249,0.1268,0.1284,0.1305,0.1322,0.1356,0.1371,0.1383,0.139,0.1438,0.144,0.142,0.1489,0.1466,0.1471,0.1487,0.1494,0.15,0.1492,0.1412,0,0,0,0,0,0.1203,0.122,0.1237,0.1256,0.1267,0.1292,0.1308,0.1326,0.135,0.1368,0.1392,0.1421,0.145,0.1468,0.149,0.1521,0.1527,0.1548,0.1554,0.1558,0.1557,0.1601,0.161,0.1512,0.1512,0.1512,0,0,0.1209,0.1222,0.1234,0.1257,0.1277,0.1294,0.1305,0.1335,0.1359,0.1368,0.1417,0.1443,0.1464,0.1505,0.1527,0.1513,0.159,0.1563,0.1566,0.1562,0.1605,0.1615,0.1623,0.1514,0.1514,0.1513,0,0,0.1217,0.124,0.1255,0.1272,0.1304,0.1316,0.133,0.136,0.1387,0.1429,0.1448,0.149,0.1531,0.1551,0.1566,0.1615,0.162,0.1632,0.1651,0.1695,0.1703,0.171,0.1727,0.1735,0.1632,0.1632,0.1632,0,0.1228,0.1244,0.1263,0.128,0.1298,0.1327,0.1346,0.1373,0.1415,0.1441,0.1453,0.1535,0.1553,0.1602,0.162,0.1628,0.1646,0.1622,0.1701,0.1709,0.1716,0.1731,0.174,0.1634,0.1634,0.1633,0.1633,0,0.1237,0.1261,0.1272,0.1302,0.1324,0.1347,0.1378,0.1413,0.1453,0.1482,0.1552,0.1581,0.1629,0.1647,0.1648,0.171,0.1704,0.1705,0.1681,0.1727,0.174,0.1749,0.1637,0.1636,0.1636,0.1635,0,0,0.1228,0.1271,0.1278,0.1297,0.1339,0.1354,0.14,0.1445,0.1485,0.1539,0.1593,0.165,0.1678,0.1696,0.1714,0.1746,0.1807,0.1748,0.1749,0.1757,0.1893,0.1753,0.1749,0.1829,0.1831,0.1833,0.1881,0,0.1232,0.1263,0.1286,0.1322,0.1338,0.1381,0.1419,0.1469,0.152,0.1578,0.1629,0.1688,0.1694,0.1728,0.1765,0.1801,0.1833,0.1793,0.1852,0.1853,0.1719,0.1755,0.1838,0.1887,0.1889,0.1891,0.1892,0,0.1227,0.125,0.1284,0.1333,0.1346,0.1377,0.1446,0.1485,0.1567,0.1613,0.1682,0.1723,0.1789,0.1786,0.1871,0.185,0.1875,0.1894,0.1897,0.1758,0.1729,0.1834,0.1907,0.1906,0.1905,0.1904,0.1903,0,0.1196,0.1245,0.1274,0.1291,0.1352,0.1386,0.1426,0.1503,0.1548,0.1642,0.1688,0.177,0.1821,0.1874,0.1917,0.1909,0.1996,0.1989,0.1884,0.1875,0.1971,0.1962,0.2048,0.2048,0.2048,0.2047,0.2047,0,0.1173,0.1199,0.1267,0.1281,0.1326,0.1377,0.1436,0.1491,0.1577,0.1625,0.1708,0.1751,0.1851,0.1907,0.1937,0.1928,0.2018,0.1886,0.1879,0.1983,0.1976,0.1976,0.1967,0.2049,0.2049,0.2048,0.2048,0,0.1128,0.1174,0.1211,0.1284,0.1311,0.1346,0.1434,0.1472,0.1563,0.1628,0.1663,0.1765,0.1828,0.1899,0.1981,0.1935,0.1952,0.1928,0.2025,0.2025,0.1796,0.1789,0.1809,0.1804,0.18,0.1797,0.1794,0,0.1101,0.1118,0.1204,0.1231,0.1269,0.1329,0.1366,0.1459,0.1495,0.1616,0.1633,0.1731,0.1784,0.1783,0.1868,0.1902,0.1887,0.1872,0.1833,0.178,0.1774,0.1772,0.177,0.1788,0.1787,0.1786,0.1785,0,0.1052,0.1099,0.1134,0.1188,0.1234,0.1269,0.1328,0.1343,0.144,0.154,0.1563,0.1593,0.1651,0.17,0.1735,0.1761,0.1866,0.1832,0.184,0.1803,0.1756,0.1753,0.1755,0.1772,0.1774,0.1775,0.1776,0,0.1023,0.1037,0.1094,0.1131,0.1184,0.1186,0.1224,0.1254,0.1299,0.1424,0.143,0.153,0.163,0.1628,0.1665,0.167,0.1648,0.1591,0.1611,0.1626,0.1544,0.1456,0.1373,0,0,0,0,0,0.0986,0.0994,0.1026,0.1055,0.1102,0.1126,0.1188,0.1226,0.1317,0.1296,0.1357,0.1402,0.1438,0.1494,0.1466,0.1592,0.1661,0.1551,0.1606,0.1699,0.1714,0.1634,0,0,0,0,0,0,0.0962,0.0996,0.1001,0.0984,0.0987,0.1016,0.1047,0.1106,0.1096,0.1201,0.1233,0.1315,0.1382,0.1449,0.1442,0.1459,0.1461,0.1621,0.1617,0.169,0.1704,0.1716,0.1639,0,0,0,0,0]},{"header":{"parameterUnit":"m.s-1","parameterCategory":2,"la1":30.2991,"la2":30.254,"lo1":-89.0895,"lo2":-89.0444,"dy":0.0017,"dx":0.0017,"nx":28,"ny":28,"refTime":"2025-12-21T09:00:00:Z","depth":"4","parameterNumber":3,"parameterNumberName":"V-component_of_CURRENTS"},"data":[0,0,0,0,0,0,0,0,0,0,0,0,0,0,0,0,0,0,0,0,0,0,0,0,0,0,0,0,0,0,0,0,0,0,0,0,0,0,0,0,0,0,0,0,0,0,0,0,0,0,0,0,0,0,0,0,0,0,0.0151,0.015,0,0.0132,0.0132,0.0132,0.0121,0.0121,0.0121,0.0121,0.0102,0.0101,0.0101,0,0,0,0,0,0,0,0,0,0,0,0,0,0.0156,0.0156,0.0151,0.015,0.015,0.0133,0.0132,0.0132,0.0121,0.0121,0.0121,0.0121,0.0102,0.0101,0.0101,0,0,0,0,0,0,0,0,0,0,0,0,0,0.0147,0.0156,0.0151,0.0143,0.0142,0.0133,0.0132,0.0132,0.0121,0.0121,0.0121,0.012,0.0102,0.0101,0.0101,0.0098,0,0,0.0099,0.0098,0,0,0,0,0,0,0,0,0.0148,0.0147,0.0144,0.0143,0.0142,0.0129,0.0127,0.0121,0.0121,0.0128,0.0121,0.012,0.0111,0.011,0.0106,0.0097,0.0096,0.0099,0.0098,0.0098,0.0098,0,0,0,0,0,0,0,0.0149,0.0148,0.0143,0.0144,0.0143,0.0133,0.0132,0.0126,0.012,0.0128,0.0127,0.0125,0.011,0.0107,0.0105,0.0096,0.0099,0.0098,0.0098,0.0097,0.0095,0.0095,0,0,0,0,0,0,0.0152,0.0149,0.0144,0.0143,0.0145,0.0133,0.0132,0.0133,0.012,0.0118,0.0125,0.0125,0.0108,0.0106,0.0105,0.0121,0.0098,0.0097,0.0097,0.0094,0.0095,0.0095,0,0,0,0,0,0,0.0153,0.0152,0.0145,0.0145,0.0144,0.0134,0.0135,0.0133,0.0132,0.0118,0.0116,0.0127,0.0108,0.0106,0.0106,0.0119,0.0097,0.0096,0.0094,0.0094,0.0095,0.014,0,0,0,0,0,0,0.0153,0.0153,0.0155,0.0146,0.0144,0.0146,0.0135,0.0132,0.0131,0.013,0.0119,0.0117,0.0108,0.0107,0.0105,0.0118,0.0096,0.0093,0.0094,0.0095,0.0138,0.0142,0.0146,0,0,0,0,0,0.0153,0.0158,0.0155,0.0155,0.0147,0.0146,0.0144,0.0136,0.0131,0.0134,0.0127,0.0117,0.011,0.0107,0.0104,0.0118,0.0093,0.0094,0.0095,0.0137,0.0141,0.0145,0,0,0,0,0,0,0.016,0.0157,0.0154,0.0157,0.0155,0.0144,0.0145,0.014,0.0136,0.0135,0.0122,0.012,0.0124,0.0113,0.011,0.0117,0.01,0.01,0.0132,0.0136,0.014,0.0148,0.0095,0,0,0,0,0,0.0163,0.0168,0.0162,0.0165,0.0165,0.0156,0.0154,0.0149,0.0144,0.0142,0.0134,0.0127,0.0125,0.0125,0.0118,0.0123,0.0103,0.0129,0.0133,0.0136,0.014,0.012,0.0122,0.0098,0.0098,0.0098,0,0,0.0165,0.0165,0.0167,0.0167,0.0163,0.0171,0.0154,0.0155,0.0164,0.014,0.015,0.0138,0.0128,0.0135,0.0136,0.0128,0.0131,0.0137,0.014,0.0142,0.0121,0.0123,0.0125,0.0098,0.0098,0.0098,0,0,0.0176,0.0173,0.0182,0.0185,0.0184,0.0181,0.0184,0.0178,0.0178,0.0184,0.017,0.0168,0.0163,0.016,0.0159,0.0177,0.0149,0.0173,0.0202,0.0182,0.0184,0.0186,0.0161,0.016,0.0178,0.0178,0.0178,0,0.0179,0.0191,0.0184,0.0195,0.0202,0.019,0.0204,0.0204,0.0199,0.0204,0.0193,0.0187,0.0178,0.0189,0.0196,0.0187,0.0166,0.0188,0.0187,0.0188,0.0189,0.0163,0.0161,0.018,0.018,0.018,0.0179,0,0.0197,0.0209,0.0215,0.0229,0.0235,0.0244,0.0246,0.0251,0.0249,0.0248,0.0253,0.0236,0.0233,0.023,0.0222,0.0226,0.0206,0.0193,0.0178,0.0194,0.0166,0.0163,0.0183,0.0182,0.0182,0.0181,0,0,0.0201,0.0224,0.0227,0.0243,0.0255,0.0263,0.0282,0.0296,0.031,0.0301,0.0314,0.0309,0.0294,0.029,0.0272,0.0259,0.0246,0.0232,0.023,0.021,0.0195,0.0176,0.017,0.023,0.023,0.023,0.0173,0,0.022,0.0251,0.0258,0.0291,0.0308,0.0311,0.0332,0.0343,0.0345,0.0353,0.0337,0.034,0.0318,0.0315,0.0299,0.0259,0.0241,0.0262,0.018,0.0177,0.016,0.0168,0.0229,0.0171,0.017,0.0169,0.0169,0,0.0238,0.0258,0.0294,0.0329,0.0337,0.0356,0.0386,0.0403,0.0412,0.0411,0.0407,0.0388,0.0374,0.0347,0.029,0.0303,0.0255,0.022,0.0216,0.0181,0.0153,0.015,0.0164,0.0164,0.0165,0.0165,0.0165,0,0.0248,0.0285,0.0316,0.0328,0.0363,0.0383,0.0403,0.0422,0.0441,0.0445,0.0449,0.0426,0.0409,0.0356,0.0286,0.0286,0.0211,0.0199,0.0136,0.0133,0.0148,0.0147,0.0154,0.0154,0.0154,0.0154,0.0154,0,0.0265,0.0292,0.0325,0.0344,0.0383,0.0402,0.0442,0.0456,0.0477,0.0499,0.0478,0.0476,0.0409,0.0359,0.0294,0.0207,0.0215,0.0141,0.0119,0.0167,0.0169,0.0145,0.0145,0.0152,0.0153,0.0153,0.0153,0,0.027,0.0293,0.033,0.0372,0.039,0.0417,0.0467,0.0492,0.051,0.0533,0.0535,0.0509,0.0446,0.0371,0.0277,0.0216,0.0136,0.0099,0.0155,0.0136,0.0068,0.0071,0.0027,0.0026,0.0025,0.0024,0.0023,0,0.0274,0.0294,0.0345,0.0367,0.0388,0.0433,0.0465,0.0503,0.053,0.0551,0.0558,0.0513,0.0481,0.0339,0.0257,0.0129,0.0107,0.0058,0.0068,0.0073,0.0056,0.006,0.0064,0.0022,0.0022,0.0021,0.0021,0,0.0275,0.0292,0.0321,0.037,0.0407,0.0454,0.0502,0.0525,0.0567,0.0579,0.0572,0.0509,0.0435,0.0335,0.0232,0.0141,0.0089,0.0048,0.0049,0.0058,0.0066,0.0051,0.0056,0.0018,0.0018,0.0019,0.0019,0,0.0269,0.0285,0.0323,0.0368,0.0414,0.0462,0.0492,0.0527,0.0559,0.0585,0.0578,0.0511,0.0476,0.034,0.0248,0.0156,0.0131,0.0093,0.0091,0.0094,0.013,0.0152,0.0112,0,0,0,0,0,0.0263,0.0284,0.0319,0.037,0.0416,0.0451,0.0512,0.054,0.0579,0.0575,0.0582,0.0516,0.0389,0.034,0.0243,0.0221,0.0107,0.0102,0.0061,-0.0,0.0003,0.0033,0,0,0,0,0,0,0.0256,0.0289,0.0312,0.0364,0.04,0.0458,0.05,0.053,0.0535,0.0556,0.0495,0.0474,0.0355,0.0441,0.0235,0.0209,0.0165,0.005,0.0047,-0.0002,0.0001,0.0004,0.0035,0,0,0,0,0]}]]